Flag for U.S.A. Weather past 2 weeks in Lincoln, Nebraska, U.S.A.

Now
64 °F

Clear.


Feels Like: 64 °F
Forecast: 60 / 86 °F
Wind: 8 mph from Southeast

Location: Lincoln Municipal Airport

Current Time: Aug 29, 2015 at 10:38:28 PM

Latest Report: Aug 29, 2015 at 9:54 PM


Visibility: 8 mi

Pressure: 30.05 "Hg

Humidity: 90%

Dew point: 61 °F

Location of LincolnLocation

Historic Weather in Lincoln — Graph

°F

Lincoln temperature yesterday

Maximum temperature yesterday: 80 °F (at 1:54 PM)
Minimum temperature yesterday: 65 °F (at 11:54 PM)
Average temperature yesterday: 72 °F

Past Weeks' High & Low Weather Summary

 TemperatureHumidityPressure
High93 °F (Aug 16, 3:54 PM)97% (Aug 29, 7:54 AM)30.20 "Hg (Aug 29, 7:54 AM)
Low47 °F (Aug 24, 4:54 AM)30% (Aug 24, 1:54 PM)29.69 "Hg (Aug 18, 7:54 AM)
Average71 °F70%29.97 "Hg
* Reported Aug 14 8:54 PM — Aug 29 8:54 PM, Lincoln, Weather by CustomWeather, © 2015

Note: Actual official high and low records may vary slightly from our data, if they occured in-between our weather recording intervals... More about our weather records

Advertising

Lincoln weather history for previous 24 hours

 ConditionsComfort  
Time TempWeatherWind HumidityBarometerVisibility
8:54 PM
Sat, Aug 29
66 °FSunny.7 mph84%30.04 "Hg10 mi
7:54 PM68 °FSunny.6 mph82%30.03 "Hg10 mi
6:54 PM70 °FSunny.6 mph76%30.02 "Hg10 mi
5:54 PM73 °FSunny.6 mph71%30.03 "Hg10 mi
4:54 PM73 °FSunny.6 mph71%30.03 "Hg10 mi
3:54 PM73 °FSunny.6 mph71%30.04 "Hg10 mi
2:54 PM73 °FPassing clouds.7 mph69%30.05 "Hg9 mi
2:01 PM70 °FOvercast.5 mph73%30.09 "Hg10 mi
12:54 PM67 °FOvercast.7 mph79%30.08 "Hg10 mi
11:54 AM65 °FLow clouds.7 mph87%30.08 "Hg8 mi
10:54 AM63 °FLow clouds.7 mph90%30.08 "Hg8 mi
9:54 AM62 °FLow clouds.10 mph90%30.07 "Hg9 mi
8:54 AM61 °FFog.10 mph93%30.06 "Hg6 mi
7:54 AM61 °FDrizzle. Low clouds.12 mph97%30.06 "Hg1 mi
6:54 AM62 °FDrizzle. Low clouds.8 mph96%30.04 "Hg2 mi
5:54 AM62 °FFog.9 mph96%30.01 "Hg2 mi
4:54 AM62 °FFog.8 mph96%30.00 "Hg4 mi
3:54 AM63 °FFog.10 mph90%29.99 "Hg6 mi
2:54 AM64 °FLow clouds.6 mph90%29.97 "Hg9 mi
1:54 AM64 °FOvercast.14 mph87%29.97 "Hg10 mi
12:54 AM65 °FOvercast.9 mph85%29.96 "Hg10 mi
11:54 PM
Fri, Aug 28
65 °FOvercast.13 mph85%29.96 "Hg10 mi
10:54 PM66 °FOvercast.12 mph81%29.96 "Hg10 mi
Weather by CustomWeather, © 2015

See weather overviewHow to use our weather pages